Location: Betzi
(47.2343°N, 9.5260°E)
Time: 06:55:26
(UTC+00:00)

AQUA - Visible Passes

Search period start: 06 October 2022 00:00
Search period end: 16 October 2022 00:00
Orbit: 701 x 702 km, 98.3° (Epoch: 06 October)

Date Brightness Start Highest point End Pass type
(mag) Time Alt. Az. Time Alt. Az. Time Alt. Az.
06 Oct 6.8 01:02:36 10° NNE 01:03:03 12° NNE 01:03:03 12° NNE visible
06 Oct 6.0 02:40:51 10° N 02:41:54 15° NNW 02:41:54 15° NNW visible
07 Oct 6.3 01:44:57 10° N 01:45:53 16° N 01:45:53 16° N visible
08 Oct 6.1 02:27:48 10° N 02:28:43 15° NNW 02:28:43 15° NNW visible
09 Oct 6.6 01:32:06 10° NNE 01:32:41 14° NNE 01:32:41 14° NNE visible
09 Oct 6.2 03:11:27 10° NNW 03:11:33 10° NNW 03:11:33 10° NNW visible
10 Oct 6.3 02:14:47 10° N 02:15:31 14° N 02:15:31 14° N visible
11 Oct 6.8 01:19:18 10° NNE 01:19:30 11° NNE 01:19:30 11° NNE visible
11 Oct 6.3 02:58:06 10° NNW 02:58:21 11° NNW 02:58:21 11° NNW visible
12 Oct 6.5 02:01:49 10° N 02:02:19 13° N 02:02:19 13° N visible
13 Oct 6.3 02:44:54 10° NNW 02:45:09 11° NNW 02:45:09 11° NNW visible
14 Oct 6.7 01:48:54 10° N 01:49:07 11° N 01:49:07 11° N visible
15 Oct 6.5 02:31:47 10° N 02:31:56 11° N 02:31:56 11° N visible
